timestamp,wind_dir_avg,wind_spd_avg,wind_spd_max_dir,wind_spd_gust,battery_voltage,lat,long
2024-02-10 00:04:00+00:00,18.0,3.14,52.0,4.93,12.25,47.59359,-54.27349
2024-02-10 00:14:00+00:00,315.0,0.01,49.0,0.0,12.17,47.59359,-54.27349
2024-02-10 00:24:00+00:00,25.0,4.44,45.0,6.78,12.17,47.59359,-54.27349
2024-02-10 00:34:00+00:00,37.0,6.02,45.0,7.73,12.17,47.59359,-54.27349
2024-02-10 00:44:00+00:00,28.0,3.28,59.0,5.08,12.17,47.59359,-54.27349
2024-02-10 00:54:00+00:00,34.0,3.97,55.0,5.86,12.17,47.59359,-54.27349
2024-02-10 01:04:00+00:00,49.0,6.68,50.0,7.55,12.17,47.59359,-54.27349
2024-02-10 01:14:00+00:00,29.0,4.43,57.0,7.08,12.17,47.59359,-54.27349
2024-02-10 01:24:00+00:00,54.0,5.49,54.0,6.94,12.17,47.59359,-54.27349
2024-02-10 01:34:00+00:00,329.0,6.22,314.0,7.49,12.17,47.59359,-54.27349
2024-02-10 01:44:00+00:00,347.0,5.16,316.0,7.14,12.17,47.59359,-54.27349
2024-02-10 01:54:00+00:00,337.0,5.67,315.0,7.48,12.17,47.59359,-54.27349
2024-02-10 02:04:00+00:00,331.0,5.87,314.0,7.13,12.17,47.59359,-54.27349
2024-02-10 02:14:00+00:00,0.0,4.05,4.0,4.41,12.17,47.59359,-54.27349
2024-02-10 02:24:00+00:00,0.0,4.74,0.0,4.97,12.17,47.59359,-54.27349
2024-02-10 02:34:00+00:00,315.0,0.01,32.0,0.0,12.17,47.59359,-54.27349
2024-02-10 02:44:00+00:00,71.0,5.81,71.0,6.81,12.17,47.59359,-54.27349
2024-02-10 02:54:00+00:00,315.0,0.01,62.0,0.0,12.17,47.59359,-54.27349
2024-02-10 03:04:00+00:00,55.0,6.09,57.0,6.93,12.17,47.59359,-54.27349
2024-02-10 03:14:01+00:00,315.0,0.01,64.0,0.0,12.09,47.59359,-54.27349
2024-02-10 03:24:01+00:00,75.0,5.39,76.0,6.4,12.09,47.59359,-54.27349
2024-02-10 03:34:01+00:00,60.0,5.03,67.0,6.51,12.09,47.59359,-54.27349
2024-02-10 03:44:01+00:00,315.0,0.01,62.0,0.0,12.09,47.59359,-54.27349
2024-02-10 03:54:01+00:00,315.0,0.01,62.0,0.0,12.09,47.59359,-54.27349
2024-02-10 04:04:01+00:00,315.0,0.01,62.0,0.0,12.09,47.59359,-54.27349
2024-02-10 04:14:00+00:00,35.0,4.29,35.0,4.3,12.09,47.59359,-54.27349
2024-02-10 04:24:00+00:00,315.0,0.01,58.0,0.0,12.09,47.59359,-54.27349
2024-02-10 04:34:00+00:00,42.0,4.6,53.0,5.94,12.09,47.59359,-54.27349
2024-02-10 04:44:00+00:00,46.0,5.28,55.0,6.26,12.09,47.59359,-54.27349
2024-02-10 04:54:00+00:00,68.0,2.95,76.0,4.23,12.09,47.59359,-54.27349
2024-02-10 05:04:00+00:00,50.0,4.54,64.0,7.1,12.09,47.59359,-54.27349
2024-02-10 05:14:00+00:00,315.0,0.01,25.0,0.0,12.09,47.59359,-54.27349
2024-02-10 05:24:00+00:00,312.0,3.86,296.0,5.87,12.09,47.59359,-54.27349
2024-02-10 05:34:00+00:00,314.0,4.99,302.0,6.55,12.09,47.59359,-54.27349
2024-02-10 05:44:00+00:00,311.0,5.33,308.0,6.57,12.09,47.59359,-54.27349
2024-02-10 05:54:00+00:00,315.0,5.21,315.0,6.78,12.09,47.59359,-54.27349
2024-02-10 06:04:00+00:00,300.0,5.49,296.0,6.77,12.09,47.59359,-54.27349
2024-02-10 06:14:00+00:00,315.0,0.01,318.0,0.0,12.09,47.59359,-54.27349
2024-02-10 06:24:00+00:00,315.0,0.01,318.0,0.0,12.09,47.59359,-54.27349
2024-02-10 06:34:00+00:00,317.0,4.33,303.0,6.07,12.09,47.59359,-54.27349
2024-02-10 06:44:00+00:00,305.0,6.22,306.0,6.24,12.09,47.59359,-54.27349
2024-02-10 06:54:00+00:00,304.0,6.39,305.0,6.63,12.09,47.59359,-54.27349
2024-02-10 07:04:00+00:00,321.0,3.87,298.0,6.2,12.09,47.59359,-54.27349
2024-02-10 07:14:01+00:00,316.0,3.75,303.0,6.0,12.01,47.59359,-54.27349
2024-02-10 07:24:01+00:00,322.0,4.3,305.0,6.37,12.01,47.59359,-54.27349
2024-02-10 07:34:01+00:00,328.0,4.19,326.0,4.97,12.01,47.59359,-54.27349
2024-02-10 07:44:01+00:00,328.0,3.77,318.0,4.36,12.01,47.59359,-54.27349
2024-02-10 07:54:01+00:00,329.0,4.04,308.0,5.59,12.01,47.59359,-54.27349
2024-02-10 08:04:01+00:00,330.0,4.11,330.0,4.53,12.01,47.59359,-54.27349
2024-02-10 08:14:00+00:00,329.0,5.22,325.0,5.95,12.01,47.59359,-54.27349
2024-02-10 08:24:00+00:00,325.0,5.21,322.0,6.32,12.01,47.59359,-54.27349
2024-02-10 08:34:00+00:00,336.0,5.27,339.0,5.91,12.01,47.59359,-54.27349
2024-02-10 08:44:00+00:00,341.0,5.41,339.0,5.48,12.01,47.59359,-54.27349
2024-02-10 08:54:00+00:00,340.0,4.48,345.0,5.1,12.01,47.59359,-54.27349
2024-02-10 09:04:00+00:00,344.0,4.84,347.0,5.41,12.01,47.59359,-54.27349
2024-02-10 09:14:00+00:00,315.0,0.01,333.0,0.0,12.01,47.59359,-54.27349
2024-02-10 09:24:00+00:00,315.0,0.01,333.0,0.0,12.01,47.59359,-54.27349
2024-02-10 09:34:00+00:00,330.0,3.08,333.0,3.26,12.01,47.59359,-54.27349
2024-02-10 09:44:00+00:00,315.0,0.01,334.0,0.0,12.01,47.59359,-54.27349
2024-02-10 09:54:00+00:00,318.0,4.45,321.0,5.39,12.01,47.59359,-54.27349
2024-02-10 10:04:00+00:00,324.0,3.89,327.0,4.73,12.01,47.59359,-54.27349
2024-02-10 11:14:00+00:00,315.0,0.01,326.0,0.0,11.93,47.59359,-54.27349
2024-02-10 11:24:00+00:00,329.0,3.3,334.0,3.72,11.93,47.59359,-54.27349
2024-02-10 11:34:00+00:00,322.0,3.1,324.0,3.44,11.93,47.59359,-54.27349
2024-02-10 11:44:00+00:00,322.0,2.53,325.0,2.88,11.93,47.59359,-54.27349
2024-02-10 11:54:00+00:00,315.0,0.01,330.0,0.0,11.93,47.59359,-54.27349
2024-02-10 12:04:00+00:00,315.0,0.01,322.0,0.0,11.93,47.59359,-54.27349
2024-02-10 12:14:00+00:00,309.0,1.91,313.0,2.03,12.25,47.59359,-54.27349
2024-02-10 12:24:00+00:00,315.0,0.01,310.0,0.0,12.25,47.59359,-54.27349
2024-02-10 12:34:00+00:00,315.0,0.01,310.0,0.0,12.25,47.59359,-54.27349
2024-02-10 12:44:00+00:00,315.0,0.01,335.0,0.0,12.25,47.59359,-54.27349
2024-02-10 12:54:00+00:00,246.0,0.62,258.0,0.73,12.25,47.59359,-54.27349
2024-02-10 13:04:00+00:00,261.0,1.27,252.0,1.59,12.25,47.59359,-54.27349
2024-02-10 13:14:00+00:00,315.0,0.01,287.0,0.0,13.68,47.59359,-54.27349
2024-02-10 13:24:00+00:00,315.0,0.01,287.0,0.0,13.68,47.59359,-54.27349
2024-02-10 13:34:00+00:00,315.0,0.01,282.0,0.0,13.68,47.59359,-54.27349
2024-02-10 13:44:00+00:00,250.0,1.17,246.0,1.9,13.68,47.59359,-54.27349
2024-02-10 13:54:00+00:00,224.0,1.49,226.0,1.92,13.68,47.59359,-54.27349
2024-02-10 14:04:00+00:00,273.0,1.28,268.0,1.84,13.68,47.59359,-54.27349
2024-02-10 14:14:00+00:00,258.0,0.86,257.0,1.27,13.6,47.59359,-54.27349
2024-02-10 14:24:00+00:00,256.0,1.37,261.0,1.75,13.6,47.59359,-54.27349
2024-02-10 14:34:00+00:00,239.0,1.24,249.0,2.08,13.6,47.59359,-54.27349
2024-02-10 14:44:00+00:00,239.0,3.15,247.0,3.78,13.6,47.59359,-54.27349
2024-02-10 14:54:00+00:00,222.0,2.75,232.0,3.99,13.6,47.59359,-54.27349
2024-02-10 15:04:00+00:00,246.0,2.43,244.0,2.91,13.6,47.59359,-54.27349
2024-02-10 15:14:01+00:00,225.0,3.56,235.0,4.64,13.53,47.59359,-54.27349
2024-02-10 15:24:01+00:00,223.0,2.79,219.0,3.59,13.53,47.59359,-54.27349
2024-02-10 15:34:01+00:00,222.0,2.35,245.0,3.16,13.53,47.59359,-54.27349
2024-02-10 15:44:01+00:00,236.0,3.12,241.0,4.18,13.53,47.59359,-54.27349
2024-02-10 15:54:01+00:00,235.0,3.71,229.0,5.19,13.53,47.59359,-54.27349
2024-02-10 16:04:01+00:00,226.0,2.12,228.0,2.86,13.53,47.59359,-54.27349
2024-02-10 16:14:00+00:00,251.0,2.44,260.0,3.01,13.53,47.59359,-54.27349
2024-02-10 16:24:00+00:00,263.0,2.73,253.0,3.81,13.53,47.59359,-54.27349
2024-02-10 16:34:00+00:00,249.0,3.42,250.0,4.16,13.53,47.59359,-54.27349
2024-02-10 16:44:00+00:00,232.0,3.54,228.0,5.23,13.53,47.59359,-54.27349
2024-02-10 16:54:00+00:00,263.0,2.89,276.0,3.94,13.53,47.59359,-54.27349
2024-02-10 17:04:00+00:00,255.0,4.06,252.0,4.79,13.53,47.59359,-54.27349
2024-02-10 17:14:01+00:00,244.0,2.85,243.0,3.51,13.68,47.59359,-54.27349
2024-02-10 17:24:01+00:00,250.0,3.73,260.0,5.87,13.68,47.59359,-54.27349
2024-02-10 17:34:01+00:00,315.0,0.01,234.0,0.0,13.68,47.59359,-54.27349
2024-02-10 17:44:01+00:00,241.0,5.57,244.0,6.13,13.68,47.59359,-54.27349
2024-02-10 17:54:01+00:00,241.0,6.15,241.0,6.23,13.68,47.59359,-54.27349
2024-02-10 18:04:01+00:00,315.0,0.01,247.0,0.0,13.68,47.59359,-54.27349
2024-02-10 18:14:00+00:00,190.0,2.64,191.0,2.65,14.48,47.59359,-54.27349
2024-02-10 18:24:00+00:00,315.0,0.01,244.0,0.0,14.48,47.59359,-54.27349
2024-02-10 18:34:00+00:00,315.0,0.01,244.0,0.0,14.48,47.59359,-54.27349
2024-02-10 18:44:00+00:00,315.0,0.01,228.0,0.0,14.48,47.59359,-54.27349
2024-02-10 18:54:00+00:00,315.0,0.01,228.0,0.0,14.48,47.59359,-54.27349
2024-02-10 19:04:00+00:00,178.0,2.95,179.0,3.07,14.48,47.59359,-54.27349
2024-02-10 19:14:00+00:00,315.0,0.01,193.0,0.0,13.29,47.59359,-54.27349
2024-02-10 19:24:00+00:00,315.0,0.01,191.0,0.0,13.29,47.59359,-54.27349
2024-02-10 19:34:00+00:00,212.0,4.97,229.0,6.57,13.29,47.59359,-54.27349
2024-02-10 19:44:00+00:00,183.0,3.8,180.0,4.27,13.29,47.59359,-54.27349
2024-02-10 19:54:00+00:00,198.0,4.81,227.0,6.56,13.29,47.59359,-54.27349
2024-02-10 20:04:00+00:00,206.0,4.94,228.0,6.97,13.29,47.59359,-54.27349
2024-02-10 20:14:00+00:00,220.0,5.73,229.0,7.2,12.89,47.59359,-54.27349
2024-02-10 20:24:00+00:00,315.0,0.01,198.0,0.0,12.89,47.59359,-54.27349
2024-02-10 20:34:00+00:00,205.0,4.7,205.0,4.91,12.89,47.59359,-54.27349
2024-02-10 20:44:00+00:00,315.0,0.01,206.0,0.0,12.89,47.59359,-54.27349
2024-02-10 20:54:00+00:00,315.0,0.01,204.0,0.0,12.89,47.59359,-54.27349
2024-02-10 21:04:00+00:00,315.0,0.01,204.0,0.0,12.89,47.59359,-54.27349
2024-02-10 21:14:00+00:00,315.0,0.01,228.0,0.0,12.41,47.59359,-54.27349
2024-02-10 21:24:00+00:00,226.0,7.39,227.0,7.5,12.41,47.59359,-54.27349
2024-02-10 21:34:00+00:00,315.0,0.01,228.0,0.0,12.41,47.59359,-54.27349
2024-02-10 21:44:00+00:00,315.0,0.01,226.0,0.0,12.41,47.59359,-54.27349
2024-02-10 21:54:00+00:00,315.0,0.01,230.0,0.0,12.41,47.59359,-54.27349
2024-02-10 22:04:00+00:00,315.0,0.01,226.0,0.0,12.41,47.59359,-54.27349
2024-02-10 22:14:00+00:00,315.0,0.01,226.0,0.0,12.25,47.59359,-54.27349
2024-02-10 22:24:00+00:00,315.0,0.01,226.0,0.0,12.25,47.59359,-54.27349
2024-02-10 22:34:00+00:00,315.0,0.01,226.0,0.0,12.25,47.59359,-54.27349
2024-02-10 22:44:00+00:00,315.0,0.01,226.0,0.0,12.25,47.59359,-54.27349
2024-02-10 22:54:00+00:00,315.0,0.01,226.0,0.0,12.25,47.59359,-54.27349
2024-02-10 23:04:00+00:00,315.0,0.01,226.0,0.0,12.25,47.59359,-54.27349
2024-02-10 23:14:00+00:00,315.0,0.01,226.0,0.0,12.17,47.59359,-54.27349
2024-02-10 23:24:00+00:00,315.0,0.01,226.0,0.0,12.17,47.59359,-54.27349
2024-02-10 23:34:00+00:00,315.0,0.01,226.0,0.0,12.17,47.59359,-54.27349
2024-02-10 23:44:00+00:00,315.0,0.01,251.0,0.0,12.17,47.59359,-54.27349
2024-02-10 23:54:00+00:00,315.0,0.01,246.0,0.0,12.17,47.59359,-54.27349
